sat.trackr.live / text

‹ back to catalog

STARLINK-36700

NORAD 67662 · 2026-022Q

PAYLOAD ACTIVE UNKNOWN

§ Identity

Operator
Country
US
Launch date
2026-02-02
Launch site
AFWTR
Launch vehicle
Mass (kg)
RCS (m²)

Purposes: comms

External: N2YO · Heavens-Above · Gunter

§ Orbital elements

Epoch: 2026-05-25T01:46:06.293280Z

Period
93.91 min
Inclination
97.2840°
Eccentricity
0.0001540
Mean motion
15.33439414 rev/d
Perigee alt
464.5 km
Apogee alt
466.6 km
Semi-major
6,843.7 km
B*
5.8688e-4
RAAN
178.4073°
Arg perigee
86.2121°
Mean anomaly
273.9298°
Rev number
1,728

§ Raw data

STARLINK-367001 67662U 26022Q   26145.07368395  .00018916  00000+0  58688-3 0  99902 67662  97.2840 178.4073 0001540  86.2121 273.9298 15.33439414 17284

JSON: /api/v1/satellites/67662 · /tle

For live sub-satellite position, see the globe view (requires WebGL).

§ Visibility from observer

Set your observer location to see the next 7 days of passes ≥ 10°. The values pass through the URL so the page stays shareable.

No JS? Fill the form by hand. The geolocation button needs JavaScript.